Location: Tamazert
(32.6352°N, 5.2072°W)
Time: 16:40:46
(UTC+00:00)

Cosmos 1703 - Pass Details

Date: 22 May 2022
Orbit: 518 x 535 km, 82.5° (Epoch: 28 June)

Event Time Altitude Azimuth Distance (km) Brightness Sun altitude
Exits shadow 03:55:52 26° 262° (W) 1,077 4.3 -15.6°
Maximum altitude 03:56:33 28° 281° (W) 1,036 4.3 -15.5°
Drops below altitude 10° 03:59:58 10° 341° (NNW) 1,795 6.2 -15.0°
Sets 04:02:21 0° 353° (N) 2,688 7.3 -14.6°
